Location: Az?znagar
(16.8373°N, 80.5091°E)
Time: 17:28:20
(UTC+00:00)

deb Chang Zheng 4 - Pass Details

Date: 27 September 2022
Orbit: 879 x 975 km, 98.9° (Epoch: 30 November)

Event Time Altitude Azimuth Distance (km) Brightness Sun altitude
Exits shadow 13:36:20 18° 129° (SE) 2,065 ? -16.6°
Maximum altitude 13:39:55 35° 74° (ENE) 1,410 ? -17.5°
Drops below altitude 10° 13:45:01 10° 10° (N) 2,557 ? -18.7°
Sets 13:47:35 0° 2° (N) 3,487 ? -19.3°
